Location: Lesignano de� Bagni
(44.6500°N, 10.3000°E)
Time: 07:59:37
(UTC+00:00)

Cosmos 2278 Rocket - Pass Details

Date: 03 March 2021
Orbit: 842 x 845 km, 71.0° (Epoch: 19 April)

Event Time Altitude Azimuth Distance (km) Brightness Sun altitude
Rises 18:40:28 0° 342° (NNW) 3,414 5.7 -17.0°
Reaches altitude 10° 18:43:31 10° 358° (N) 2,475 4.8 -17.5°
Maximum altitude 18:47:50 22° 48° (NE) 1,784 3.5 -18.3°
Enters shadow 18:48:24 21° 56° (NE) 1,798 3.5 -18.4°
